Wind_Speed
13 13 12 9 8 7 8 8 8 8 7 7 7 7 7 7 6 5 5 5 6 7 6 6 6 5 6 6 6 4 3 4 5 5 5 6 7 6 5 6 6 8 8
16 13 12 8 8 7 7 7 8 8 8 7 8 8 7 7 7 6 5 5 5 4 4 3 4 5 6 7 5 4 3 3 3 3 3 5 7 7 6 3 1 8 6
18 15 11 10 8 8 7 7 7 7 7 7 7 7 6 6 6 5 5 5 4 3 2 1 4 6 6 5 5 3 2 1 2 2 2 5 8 6 5 4 2 4 5
18 16 14 12 9 8 8 8 8 8 8 7 9 8 7 6 6 6 5 4 3 2 3 4 5 5 5 6 5 4 3 2 2 2 2 0 2 4 4 6 4 4 5
20 17 15 14 11 10 8 8 8 8 7 10 8 8 6 6 5 4 3 3 3 4 5 5 5 5 5 5 6 6 6 5 5 4 4 6 5 11 4 5 5 5 6
28 22 16 14 12 10 9 9 8 7 7 7 7 5 5 4 4 4 3 3 4 4 3 4 4 4 4 5 6 7 7 8 7 8 7 8 7 9 4 5 9 10 10
20 16 15 13 12 11 11 10 9 8 7 6 5 4 4 4 4 4 4 5 5 5 6 9 6 6 7 6 8 9 10 9 8 10 10 9 11 12 7 9 9 11 12
17 20 14 13 12 11 11 9 9 8 7 5 4 4 4 4 4 3 3 3 4 4 5 4 2 4 6 8 8 7 5 8 10 12 14 11 13 9 12 13 13 14 16
17 16 14 13 12 11 10 9 9 7 6 5 4 4 5 7 7 6 5 4 4 4 3 3 4 4 5 5 6 5 5 7 9 8 8 8 13 12 13 16 16 15 17
13 15 16 13 13 13 10 9 9 8 7 7 8 8 6 6 8 9 6 3 3 3 2 3 4 6 7 5 7 7 8 10 14 15 5 6 7 9 13 12 16 15 15
13 12 13 13 11 11 10 8 8 10 10 6 6 8 3 4 4 4 3 3 4 4 6 8 8 7 7 6 5 8 9 11 6 5 5 4 7 12 12 11 11 13 14
15 14 13 13 12 11 13 9 9 5 5 6 5 3 6 4 4 2 2 6 6 10 6 8 8 6 7 12 7 9 10 10 6 5 2 2 8 11 11 10 12 14 15
14 14 12 12 11 11 12 12 10 10 8 6 5 4 3 4 4 6 7 3 5 6 9 8 2 6 7 7 7 9 8 8 8 9 6 3 8 7 10 9 11 13 15
13 13 13 11 10 9 11 10 9 10 7 7 4 3 4 4 7 8 7 6 6 6 6 8 9 7 9 7 9 9 10 8 9 7 5 7 9 7 4 5 8 11 13
13 12 13 11 10 8 8 8 7 6 3 5 4 4 3 4 5 6 5 8 5 9 10 8 10 8 10 9 9 9 9 8 8 7 7 10 12 10 7 5 5 4 6
13 13 12 11 10 9 6 8 7 3 4 2 4 6 3 5 5 4 4 7 7 9 7 9 8 9 11 8 8 6 7 14 8 7 9 8 10 11 11 9 7 4 5
13 13 13 11 11 10 8 8 6 5 6 3 3 5 3 5 4 7 6 7 7 5 5 7 10 9 10 2 2 6 10 8 9 7 8 7 15 15 17 17 16 16 16
14 13 12 12 12 11 8 6 5 3 3 2 1 4 4 4 4 7 4 9 8 4 6 11 13 13 11 13 3 4 7 4 1 6 8 7 6 13 17 15 16 18 17
14 13 13 12 12 10 7 6 5 4 4 0 2 3 7 3 4 6 6 10 9 10 8 13 13 10 16 11 11 9 6 3 5 8 6 8 5 8 11 11 12 13 13
16 15 13 13 12 9 6 5 6 7 5 4 2 6 5 6 3 8 4 5 10 11 12 12 12 12 11 7 14 2 2 2 4 5 6 6 6 5 7 5 9 10 12
17 16 15 14 12 10 9 9 7 9 7 5 3 3 4 5 6 5 11 10 10 13 7 10 13 14 11 11 15 8 6 3 5 6 6 6 6 5 5 5 6 7 6
18 18 17 15 13 12 10 9 7 5 4 4 2 3 3 3 5 7 8 12 13 11 8 10 11 13 12 7 11 13 5 6 4 3 4 3 3 1 2 5 5 7 8
20 19 19 17 15 14 11 9 7 6 6 5 7 8 7 2 4 4 7 9 11 13 14 10 10 9 12 11 6 6 5 6 13 4 3 1 2 4 3 0 1 4 7
21 19 18 19 18 16 14 11 10 8 8 4 5 1 2 3 4 3 4 8 10 12 12 12 11 11 8 14 11 10 3 1 4 6 2 6 3 2 3 6 3 1 5
23 21 19 19 19 17 17 16 12 12 9 8 8 2 5 4 3 1 4 7 8 12 11 9 9 10 11 11 10 10 8 7 5 7 7 6 6 4 1 4 4 5 5
24 22 21 20 19 19 17 16 14 10 11 8 8 8 8 4 4 4 3 6 6 10 10 9 7 8 9 8 9 8 9 10 10 11 7 9 8 6 2 2 3 5 6
Wind_Direction
140 143 141 141 124 102 106 102 106 101 101 102 97 105 95 90 90 88 87 83 78 77 80 77 63 64 65 56 59 61 86 94 90 88 91 99 117 113 108 117 125 139 132
139 143 140 132 122 112 105 104 101 98 95 98 95 94 88 85 86 92 87 79 71 77 76 76 57 55 43 40 41 43 51 87 96 112 138 152 148 129 137 145 43 133 127
139 144 144 140 132 117 113 104 99 100 94 90 84 84 88 82 81 79 68 57 55 66 85 46 18 19 14 7 1 9 12 96 172 145 163 219 176 126 147 153 199 104 146
139 143 146 150 138 125 125 114 109 104 101 99 92 93 96 88 81 77 72 70 60 38 357 355 356 344 331 318 311 304 315 285 227 213 238 235 169 193 173 182 176 180 182
148 144 139 148 141 132 127 114 111 106 98 95 97 93 91 79 76 76 63 33 352 331 330 331 321 311 307 311 305 300 280 273 258 248 241 210 226 210 188 202 203 208 205
142 123 139 137 139 130 123 124 114 108 103 97 97 92 76 66 47 31 18 349 328 312 324 313 303 314 313 302 293 292 278 263 255 245 245 234 243 181 205 227 199 204 215
119 118 130 143 132 133 126 117 116 117 117 109 96 79 61 49 35 13 355 332 331 324 320 317 281 288 301 304 302 287 272 247 245 251 241 252 260 215 246 247 225 222 231
116 125 133 132 131 124 118 114 118 113 113 106 86 64 43 29 13 357 357 11 3 345 4 46 352 317 304 298 301 306 288 249 256 241 234 247 219 241 261 251 233 226 222
133 124 135 134 134 127 126 121 118 121 114 100 83 49 40 50 40 42 62 65 52 38 34 17 3 353 337 307 297 286 296 266 253 271 275 240 229 244 260 245 235 230 230
116 130 124 133 140 138 128 133 134 128 116 86 64 63 60 52 39 40 38 31 34 5 0 349 331 330 326 305 331 320 299 275 244 236 215 249 266 268 269 244 236 241 243
133 132 135 132 139 131 132 130 121 118 95 84 68 38 31 59 42 82 41 4 350 333 318 329 332 337 342 280 303 318 297 255 280 307 314 167 251 274 267 253 247 243 243
147 152 135 142 137 147 132 142 142 155 130 102 84 51 63 49 40 64 33 12 18 10 345 0 2 348 335 305 248 272 268 290 299 281 174 234 301 288 267 260 252 249 248
148 144 145 133 144 147 128 141 144 131 126 106 96 63 66 63 3 46 50 57 350 20 7 319 255 339 1 338 333 329 307 288 320 51 87 4 326 294 262 257 259 253 260
153 142 147 141 148 132 144 155 132 125 123 123 90 67 346 126 43 11 30 2 351 8 21 346 9 336 336 317 342 347 327 358 18 71 32 16 5 0 328 298 272 276 270
154 146 142 146 151 152 169 143 148 133 140 103 139 92 41 20 23 31 356 353 351 18 7 3 2 350 316 350 2 1 350 29 18 69 66 32 40 48 50 11 341 301 281
156 157 152 157 157 163 170 159 166 174 136 140 116 63 65 19 36 352 345 312 33 23 3 358 330 329 317 20 354 25 9 35 31 18 45 76 66 69 67 65 57 26 344
162 161 156 162 161 165 164 176 194 194 161 180 119 122 38 342 26 316 356 350 15 357 347 352 323 351 342 25 104 111 82 35 49 38 30 78 96 83 83 80 75 65 62
155 160 159 164 160 167 171 183 220 177 192 189 40 103 53 11 8 302 290 37 342 329 357 352 1 356 354 5 33 70 36 33 220 49 35 25 20 93 87 84 83 74 66
150 161 164 162 165 171 174 199 203 154 229 141 321 22 41 318 29 304 16 33 315 323 35 355 354 359 354 348 331 124 105 5 16 18 55 69 34 95 99 96 90 71 55
154 166 170 172 171 181 178 205 204 177 224 232 249 46 3 30 32 336 1 8 332 346 2 354 342 342 325 352 324 100 134 80 25 44 51 68 62 47 70 108 101 92 58
165 169 178 179 176 186 199 200 202 209 197 239 253 86 308 9 6 322 351 351 349 348 338 360 349 352 336 24 325 344 142 145 70 38 30 22 33 43 57 47 34 30 74
178 177 180 187 185 193 202 219 231 238 240 250 315 27 284 332 331 318 352 339 6 333 67 7 7 347 351 4 2 329 339 152 177 41 26 5 82 322 77 39 37 26 6
185 189 185 189 192 196 218 201 205 236 264 253 228 242 160 320 303 338 343 352 351 324 13 3 9 359 348 343 41 22 342 357 333 150 167 137 314 300 19 42 66 32 2
192 191 195 194 195 198 204 218 214 237 237 226 221 57 302 253 294 316 358 356 357 344 19 6 8 349 354 355 358 19 85 33 347 328 251 187 222 229 142 284 307 145 20
192 192 194 198 200 203 199 212 209 224 220 224 223 173 230 229 228 335 358 359 4 5 20 7 5 4 10 358 2 347 344 310 200 313 312 318 233 189 188 277 341 322 357
197 195 192 192 201 204 202 208 217 226 231 239 205 226 235 212 189 158 10 359 4 6 12 6 11 19 19 13 348 343 350 346 348 330 328 312 337 302 17 285 295 336 339
Height
797 802 803 805 806 807 808 809 809 810 810 809 810 811 811 811 811 812 812 813 814 814 815 815 815 815 814 813 813 812 813 814 814 814 815 815 816 816 817 817 818 819 818
797 802 803 806 807 808 809 811 811 811 811 811 812 812 812 813 814 814 815 815 815 816 816 816 816 816 814 814 814 814 814 814 814 814 815 815 815 816 817 819 820 819 820
797 803 806 807 809 810 812 813 813 813 813 813 813 814 815 815 816 816 816 817 817 817 817 817 817 816 815 815 815 814 814 814 814 814 814 814 816 816 818 820 821 821 822
798 803 807 809 811 813 814 815 816 816 816 816 816 817 817 818 818 819 819 819 818 817 818 818 817 816 816 815 814 814 813 813 813 813 813 814 815 815 817 819 820 821 823
797 802 807 811 813 815 816 817 817 818 818 818 819 819 819 820 820 820 821 820 819 818 818 817 816 816 815 815 814 813 812 812 812 813 813 813 814 814 815 817 819 820 821
794 800 807 812 814 816 817 819 819 819 820 820 820 820 820 821 821 821 821 819 818 818 818 816 816 815 815 814 813 812 811 811 811 812 812 812 813 812 814 816 817 818 819
794 803 810 813 815 817 818 820 820 821 821 821 821 821 821 821 821 821 820 819 818 817 816 815 814 813 813 812 810 810 809 809 810 810 809 810 809 811 812 813 815 816 818
794 803 811 814 816 818 819 820 821 821 821 821 822 821 821 821 821 820 820 819 818 817 816 814 813 813 811 810 809 808 807 807 808 806 806 806 807 808 809 810 811 811 812
797 804 810 814 817 818 819 820 821 821 822 822 822 821 821 821 821 820 820 819 818 817 816 815 814 812 811 809 808 807 806 806 805 803 803 803 802 805 806 806 807 808 810
799 803 809 814 816 818 821 820 821 822 822 822 822 822 821 821 821 820 820 819 818 817 815 814 813 812 810 809 808 807 805 803 802 798 800 802 803 804 804 804 805 807 808
803 806 809 813 817 819 821 822 822 822 822 822 823 822 821 823 822 821 820 819 818 817 815 814 812 810 808 805 805 804 802 800 797 798 798 798 801 802 802 803 804 805 805
802 805 809 812 816 818 818 822 823 822 823 824 825 824 822 823 822 821 820 818 817 816 813 812 811 808 807 804 801 801 799 798 796 797 796 798 799 800 800 801 801 801 801
800 803 809 812 816 816 819 820 820 820 822 824 825 824 823 821 820 817 817 816 815 813 814 810 809 808 807 806 802 799 799 795 794 794 796 797 798 798 799 800 799 799 798
800 803 808 813 817 817 820 819 820 821 822 821 824 825 822 821 821 819 818 816 814 813 813 810 809 809 806 802 802 800 796 795 795 793 796 797 798 798 798 798 798 798 797
801 804 808 814 818 820 820 820 820 822 821 822 822 824 823 821 822 820 819 816 814 814 812 810 810 809 804 802 801 800 798 797 797 796 796 798 798 798 798 798 797 796 796
802 805 809 814 817 820 821 823 823 822 823 822 821 823 824 822 823 820 818 814 814 813 813 811 810 806 803 801 802 801 801 800 801 800 798 799 799 799 798 798 797 796 795
802 806 810 814 818 821 822 823 823 822 821 821 820 823 824 823 823 821 818 814 816 813 811 809 807 805 800 798 798 799 802 803 803 803 802 800 800 800 798 799 799 797 796
801 806 810 812 817 820 822 824 822 822 822 821 821 821 823 824 823 820 815 814 815 812 809 807 806 804 800 800 798 799 802 803 801 801 801 803 802 801 800 800 800 800 800
802 807 811 813 817 820 822 823 824 824 823 821 821 820 823 822 822 820 816 816 815 810 810 811 808 806 803 801 796 796 799 801 800 800 800 803 804 801 802 802 800 800 801
801 807 810 813 817 820 822 823 822 821 822 822 821 822 824 821 822 821 815 817 815 810 811 813 811 806 802 801 796 792 798 799 800 800 800 801 804 804 803 803 802 801 800
799 804 809 812 816 819 821 821 821 819 820 820 821 822 824 823 823 822 818 816 814 812 813 813 810 805 800 800 798 793 795 797 798 799 800 802 804 804 804 804 804 803 800
796 801 806 810 814 817 819 820 819 819 818 819 819 822 823 823 823 821 821 818 817 813 812 812 811 807 801 800 801 796 790 792 794 797 799 800 802 802 802 804 805 804 803
792 799 803 807 811 815 816 819 821 822 822 821 820 818 821 821 821 821 821 820 818 814 813 813 811 809 805 800 800 802 798 797 795 794 796 798 799 799 801 802 803 803 803
788 794 800 804 807 811 814 815 817 817 817 816 817 816 819 820 820 819 820 819 818 815 815 813 812 810 807 803 802 802 804 805 802 796 790 794 796 798 801 802 800 800 801
783 788 795 801 805 807 810 812 815 817 815 816 816 817 818 818 818 818 819 819 818 816 815 814 813 811 808 808 806 804 802 799 799 797 794 790 790 793 796 800 800 800 800
778 783 788 795 801 805 808 810 812 813 814 812 814 815 814 813 815 817 818 818 817 817 816 814 814 813 812 811 810 807 805 803 802 801 796 793 790 790 794 797 799 801 800